Weather Roundup
Issued by NWS

Home | Current Version | Previous Version | Text Only | Print | Product List | Glossary On
Versions: 1 2 3 4 5 6 7 8 9 10 11 12 13 14 15 16 17 18 19 20 21 22 23 24 25 26 27 28 29 30 31 32 33 34 35 36 37 38 39 40 41 42 43 44 45 46 47 48 49 50
000
NZUS93 KARX 161559
HRRWXR

CURRENT HOURLY OBSERVATIONS ACROSS
MUCH OF THE UPPER MISSISSIPPI VALLEY
NATIONAL WEATHER SERVICE LA CROSSE WI
1100 AM CDT WED APR 16 2014


...SOUTHEAST MINNESOTA...


CITY           SKY/WX    TMP DP  RH WIND       PRES   REMARKS
ROCHESTER      CLOUDY    40  26  57 S23G36    29.88F WCI  30
ROCHESTER/MAYO PTSUNNY   42  22  46 SE22G29   29.89F
WINONA         CLOUDY    43  23  45 SE15G22   29.96F
AUSTIN         CLOUDY    39  28  65 SE12G22   29.86S WCI  32
ALBERT LEA     CLOUDY    43  28  56 S18G33    29.82F
DODGE CENTER   CLOUDY    41  27  56 SE21G30   29.87R
PRESTON        CLOUDY    42  27  55 S17G25    29.92F
OWATONNA       CLOUDY    41  27  56 SE17      29.86F
FARIBAULT      CLOUDY    43  25  49 SE13G21   29.88F
$$

...ELSEWHERE IN MINNESOTA...


CITY           SKY/WX    TMP DP  RH WIND       PRES   REMARKS
MINNEAPOLIS    CLOUDY    34  27  75 E18       29.92F WCI  23
INTNL FALLS    MOSUNNY   30   5  34 E12       30.19S WCI  20
DULUTH         LGT SNOW  25  20  81 E14       30.13S VSB 3/4 WCI  13
RED WING       CLOUDY    37  25  60 E13       29.95F WCI  29
REDWOOD FALLS  LGT SNOW  33  32  96 E12       29.79F FOG     WCI  24
MANKATO        CLOUDY    43  27  52 SE17      29.84R
WORTHINGTON    CLOUDY    46  27  46 S21G28    29.70F
FAIRMONT       CLOUDY    45  30  57 S23G29    29.77F
$$

...SOUTHWEST WISCONSIN...


CITY           SKY/WX    TMP DP  RH WIND       PRES   REMARKS
LA CROSSE      CLOUDY    46  24  42 SE17G23   30.00F
PRAIRIE DU CHI PTSUNNY   46  24  42 SE16G28   30.04F
BOSCOBEL       MOSUNNY   47  25  42 SE14G22   30.07F
LONE ROCK      NOT AVBL
PLATTEVILLE    MOSUNNY   44  28  54 SE25G31   30.10F
FORT MC COY    CLOUDY    42  23  47 SE15      30.05F
VIROQUA        PTSUNNY   39  25  57 SE20G29   30.02F WCI  30
WIS DELLS      PTSUNNY   38  25  59 SE16      30.14S WCI  29
$$

...ELSEWHERE IN WISCONSIN...


CITY           SKY/WX    TMP DP  RH WIND       PRES   REMARKS
MILWAUKEE      PTSUNNY   40  27  59 SE17      30.28F WCI  31
MADISON        CLOUDY    43  25  49 S23G33    30.18F
GREEN BAY      CLOUDY    35  28  75 SE16      30.27F WCI  25
EAU CLAIRE     CLOUDY    32  25  75 E10       30.03F WCI  24
BLACK RVR FLS  FAIR      38  24  56 SE12G20   30.04F WCI  31
MEDFORD        LGT SNOW  27  24  87 E8G21     30.11F VSB 3/4 WCI  19
WAUSAU         LGT SNOW  29  25  85 SE16      30.15F VSB 3/4 WCI  17
WIS RAPIDS     CLOUDY    32  27  81 SE12G26   30.15F WCI  23
MARSHFIELD     CLOUDY    30  26  85 SE18G28   30.09F WCI  18
RICE LAKE      HVY SNOW  28  26  91 E14G22    30.06F VSB 1/4 WCI  17
$$

...NORTHEAST IOWA...


CITY           SKY/WX    TMP DP  RH WIND       PRES   REMARKS
WATERLOO       CLOUDY    49  28  44 S29G37    29.93F
DUBUQUE        MOSUNNY   44  28  53 S28G36    30.07F
DECORAH        CLOUDY    45  28  53 S16G30    29.95F
MASON CITY     CLOUDY    46  31  55 SE22G30   29.84F
CHARLES CITY   CLOUDY    43  27  52 S26G36    29.90F
OELWEIN        PTSUNNY  N/A N/A N/A SE25G36   29.97F
$$

...ELSEWHERE IN IOWA...


CITY           SKY/WX    TMP DP  RH WIND       PRES   REMARKS
DES MOINES     CLOUDY    58  28  32 S28G35    29.87F
IOWA CITY      MOSUNNY   50  30  46 S23G33    30.07F
FORT DODGE     CLOUDY    52  32  46 S28G39    29.79S
MARSHALLTOWN   CLOUDY    51  32  48 S25G33    29.89F
CEDAR RAPIDS   MOSUNNY   48  28  46 SE22G33   30.01F
$$

...NORTHERN ILLINOIS...


CITY           SKY/WX    TMP DP  RH WIND       PRES   REMARKS
CHICAGO-OHARE  CLOUDY    43  22  43 S20       30.28F
DUPAGE         PTSUNNY   43  26  51 S20G28    30.26F
CHICAGO-MIDWAY PTSUNNY   43  23  45 S17       30.30F
MOLINE         PTSUNNY   48  26  42 S17G29    30.14S
ROCKFORD       CLOUDY    43  26  51 S22G31    30.24F
STERLING       CLOUDY    46  28  49 SE16G24   30.19F
PEORIA         MOSUNNY   48  26  42 S23G32    30.21F
$$

NOTE: "FAIR" INDICATES FEW OR NO CLOUDS BELOW 12,000 FEET WITH NO
SIGNIFICANT WEATHER AND/OR OBSTRUCTIONS TO VISIBILITY. WIND
SPEEDS ARE IN MILES-PER-HOUR.



USA.gov is the U.S. government's official web portal to all federal, state and local government web resources and services.